| time (UTC) | temp F | wind direction | speed knots | gust knots | rain 1hr in | rain 24hr in | rain mn in | humidity % | barometer mb |
| 20260502163351 | 68 | 133 | 6.1 | 11.3 | 0.00 | 0.01 | 0.01 | 78 | 1015.5 |
| 20260502161344 | 67 | 79 | 8.7 | 11.3 | 0.00 | 0.01 | 0.01 | 81 | 1016.1 |
| 20260502151310 | 68 | 75 | 7.8 | 12.2 | 0.00 | 0.01 | 0.01 | 79 | 1016.5 |
| 20260502130738 | 69 | 75 | 9.6 | 13.0 | 0.00 | 0.01 | 0.01 | 76 | 1017.8 |
| 20260502122430 | 69 | 99 | 7.8 | 12.2 | 0.00 | 0.01 | 0.01 | 76 | 1018.2 |
| 20260502120530 | 69 | 99 | 7.8 | 12.2 | 0.00 | 0.01 | 0.01 | 76 | 1018.2 |
| 20260502114553 | 69 | 99 | 7.8 | 12.2 | 0.00 | 0.01 | 0.01 | 76 | 1018.2 |
| 20260502112533 | 69 | 99 | 7.8 | 12.2 | 0.00 | 0.01 | 0.01 | 76 | 1018.2 |
| 20260502110532 | 69 | 99 | 7.8 | 12.2 | 0.00 | 0.01 | 0.01 | 76 | 1018.2 |
| 20260502104644 | 69 | 89 | 5.2 | 13.0 | 0.00 | 0.01 | 0.01 | 79 | 1018.6 |
| 20260502102722 | 69 | 89 | 5.2 | 13.0 | 0.00 | 0.01 | 0.01 | 79 | 1018.6 |
| 20260502100706 | 68 | 79 | 7.8 | 11.3 | 0.00 | 0.01 | 0.01 | 83 | 1018.7 |
| 20260502090619 | 66 | 230 | 0.0 | 4.3 | 0.00 | 0.01 | 0.01 | 86 | 1018.8 |
| 20260502070714 | 64 | 263 | 0.9 | 1.7 | 0.00 | 0.01 | 0.00 | 88 | 1018.5 |
| 20260502064744 | 64 | 263 | 0.9 | 1.7 | 0.00 | 0.01 | 0.00 | 88 | 1018.5 |
| 20260502062624 | 64 | 263 | 0.9 | 1.7 | 0.00 | 0.01 | 0.00 | 88 | 1018.5 |
| 20260502060633 | 64 | 263 | 0.9 | 1.7 | 0.00 | 0.01 | 0.00 | 88 | 1018.5 |
| 20260502054633 | 64 | 263 | 0.9 | 1.7 | 0.00 | 0.01 | 0.00 | 88 | 1018.5 |
| 20260502052823 | 64 | 256 | 2.6 | 5.2 | 0.00 | 0.01 | 0.00 | 88 | 1018.8 |
| 20260502050854 | 64 | 256 | 2.6 | 5.2 | 0.00 | 0.01 | 0.00 | 88 | 1018.8 |
| 20260502044803 | 64 | 256 | 2.6 | 5.2 | 0.00 | 0.01 | 0.00 | 88 | 1018.8 |
| 20260502042653 | 64 | 256 | 2.6 | 5.2 | 0.00 | 0.01 | 0.00 | 88 | 1018.8 |
| 20260502040751 | 64 | 247 | 0.9 | 2.6 | 0.00 | 0.01 | 0.00 | 87 | 1018.9 |
| 20260502034740 | 64 | 247 | 0.9 | 2.6 | 0.00 | 0.01 | 0.00 | 87 | 1018.9 |
| 20260502032553 | 64 | 208 | 2.6 | 4.3 | 0.00 | 0.01 | 0.00 | 85 | 1019.2 |
| 20260502030359 | 64 | 208 | 2.6 | 4.3 | 0.00 | 0.01 | 0.00 | 85 | 1019.2 |
| 20260502024337 | 64 | 208 | 2.6 | 4.3 | 0.00 | 0.01 | 0.00 | 85 | 1019.2 |
| 20260502022242 | 64 | 208 | 2.6 | 4.3 | 0.00 | 0.01 | 0.00 | 85 | 1019.2 |
| 20260502020024 | 64 | 208 | 2.6 | 4.3 | 0.00 | 0.01 | 0.00 | 85 | 1019.2 |
| 20260502014044 | 64 | 261 | 2.6 | 5.2 | 0.00 | 0.01 | 0.00 | 85 | 1020.3 |
| 20260502011919 | 64 | 261 | 2.6 | 5.2 | 0.00 | 0.01 | 0.00 | 85 | 1020.3 |
| 20260502005839 | 64 | 261 | 2.6 | 5.2 | 0.00 | 0.01 | 0.00 | 85 | 1020.3 |
| 20260502003846 | 64 | 261 | 2.6 | 5.2 | 0.00 | 0.01 | 0.00 | 85 | 1020.3 |
| 20260502001815 | 64 | 261 | 2.6 | 5.2 | 0.00 | 0.01 | 0.00 | 85 | 1020.3 |
| 20260501235635 | 64 | 261 | 2.6 | 5.2 | 0.00 | 0.01 | 0.00 | 85 | 1020.3 |
| 20260501233536 | 65 | 271 | 0.9 | 1.7 | 0.00 | 0.01 | 0.00 | 83 | 1020.4 |
| 20260501231424 | 65 | 271 | 0.9 | 1.7 | 0.00 | 0.01 | 0.00 | 83 | 1020.4 |
| 20260501225519 | 65 | 271 | 0.9 | 1.7 | 0.00 | 0.01 | 0.00 | 83 | 1020.4 |
| 20260501223453 | 65 | 271 | 0.9 | 1.7 | 0.00 | 0.01 | 0.00 | 83 | 1020.4 |
| 20260501221513 | 65 | 353 | 4.3 | 6.1 | 0.00 | 0.01 | 0.01 | 82 | 1020.7 |
| 20260501215519 | 65 | 353 | 4.3 | 6.1 | 0.00 | 0.01 | 0.01 | 82 | 1020.7 |
| 20260501213430 | 65 | 349 | 4.3 | 6.1 | 0.00 | 0.01 | 0.01 | 82 | 1020.9 |
| 20260501211535 | 65 | 341 | 2.6 | 6.1 | 0.00 | 0.01 | 0.01 | 82 | 1021.1 |
| 20260501205423 | 65 | 355 | 4.3 | 5.2 | 0.00 | 0.01 | 0.01 | 83 | 1019.9 |
| 20260501203500 | 65 | 355 | 4.3 | 5.2 | 0.00 | 0.01 | 0.01 | 83 | 1019.9 |
| 20260501201439 | 65 | 355 | 4.3 | 5.2 | 0.00 | 0.01 | 0.01 | 83 | 1019.9 |
| 20260501195325 | 65 | 355 | 4.3 | 5.2 | 0.00 | 0.01 | 0.01 | 83 | 1019.9 |
| 20260501193239 | 66 | 36 | 2.6 | 5.2 | 0.00 | 0.01 | 0.01 | 82 | 1019.8 |
| 20260501191334 | 66 | 357 | 4.3 | 6.1 | 0.00 | 0.01 | 0.01 | 81 | 1019.3 |
| 20260501185317 | 66 | 357 | 4.3 | 6.1 | 0.00 | 0.01 | 0.01 | 81 | 1019.3 |
| 20260501183413 | 66 | 357 | 4.3 | 6.1 | 0.00 | 0.01 | 0.01 | 81 | 1019.3 |